| time (UTC) | temp F | wind direction | speed MPH | gust MPH | rain 1hr in | rain 24hr in | rain mn in | humidity % | barometer mb |
| 20260504030504 | 43 | 139 | 0.0 | 0.0 | 0.00 | 0.00 | 0.00 | 74 | 1016.0 |
| 20260504030004 | 44 | 139 | 0.0 | 0.0 | 0.00 | 0.00 | 0.00 | 73 | 1016.1 |
| 20260504025504 | 44 | 139 | 0.0 | 0.0 | 0.00 | 0.00 | 0.00 | 73 | 1016.1 |
| 20260504024503 | 44 | 139 | 0.0 | 0.0 | 0.00 | 0.00 | 0.00 | 73 | 1016.0 |
| 20260504024005 | 44 | 139 | 0.0 | 0.0 | 0.00 | 0.00 | 0.00 | 73 | 1016.0 |
| 20260504023504 | 44 | 139 | 0.0 | 0.0 | 0.00 | 0.00 | 0.00 | 72 | 1016.0 |
| 20260504022504 | 44 | 139 | 0.0 | 0.0 | 0.00 | 0.00 | 0.00 | 72 | 1016.0 |
| 20260504022005 | 44 | 139 | 0.0 | 0.0 | 0.00 | 0.00 | 0.00 | 72 | 1016.0 |
| 20260504021504 | 45 | 139 | 0.0 | 0.0 | 0.00 | 0.00 | 0.00 | 71 | 1016.1 |
| 20260504021004 | 45 | 139 | 0.0 | 0.0 | 0.00 | 0.00 | 0.00 | 71 | 1016.0 |
| 20260504020004 | 45 | 139 | 0.0 | 0.0 | 0.00 | 0.00 | 0.00 | 70 | 1015.8 |
| 20260504015505 | 45 | 144 | 0.0 | 0.0 | 0.00 | 0.00 | 0.00 | 70 | 1015.8 |
| 20260504014504 | 46 | 144 | 0.0 | 0.0 | 0.00 | 0.00 | 0.00 | 69 | 1015.8 |
| 20260504014005 | 46 | 144 | 0.0 | 0.0 | 0.00 | 0.00 | 0.00 | 68 | 1015.7 |
| 20260504013004 | 46 | 134 | 0.0 | 0.0 | 0.00 | 0.00 | 0.00 | 67 | 1015.7 |
| 20260504012503 | 46 | 133 | 0.0 | 0.0 | 0.00 | 0.00 | 0.00 | 67 | 1015.6 |
| 20260504012004 | 47 | 133 | 0.0 | 0.0 | 0.00 | 0.00 | 0.00 | 66 | 1015.6 |
| 20260504011504 | 47 | 133 | 0.0 | 0.0 | 0.00 | 0.00 | 0.00 | 65 | 1015.6 |
| 20260504010504 | 47 | 133 | 0.0 | 0.0 | 0.00 | 0.00 | 0.00 | 64 | 1015.4 |
| 20260504010004 | 48 | 113 | 0.0 | 0.0 | 0.00 | 0.00 | 0.00 | 64 | 1015.4 |
| 20260504005004 | 49 | 113 | 0.0 | 0.0 | 0.00 | 0.00 | 0.00 | 62 | 1015.3 |
| 20260504004504 | 49 | 113 | 0.0 | 0.0 | 0.00 | 0.00 | 0.00 | 61 | 1015.3 |
| 20260504003004 | 51 | 103 | 0.0 | 0.0 | 0.00 | 0.00 | 0.00 | 56 | 1015.0 |
| 20260504002505 | 51 | 103 | 0.0 | 0.0 | 0.00 | 0.00 | 0.00 | 55 | 1014.9 |
| 20260504002004 | 52 | 103 | 0.0 | 0.0 | 0.00 | 0.00 | 0.00 | 54 | 1014.8 |
| 20260504001504 | 52 | 103 | 0.0 | 0.0 | 0.00 | 0.00 | 0.00 | 53 | 1014.8 |
| 20260504001004 | 53 | 103 | 0.0 | 0.0 | 0.00 | 0.00 | 0.00 | 52 | 1014.8 |
| 20260504000504 | 53 | 103 | 0.0 | 0.0 | 0.00 | 0.00 | 0.00 | 51 | 1014.7 |
| 20260503235505 | 54 | 119 | 0.0 | 0.0 | 0.00 | 0.00 | 0.00 | 49 | 1014.8 |
| 20260503234504 | 55 | 119 | 0.0 | 1.0 | 0.00 | 0.00 | 0.00 | 48 | 1014.7 |
| 20260503234004 | 55 | 106 | 0.0 | 1.0 | 0.00 | 0.00 | 0.00 | 47 | 1014.7 |
| 20260503233504 | 56 | 65 | 0.0 | 1.0 | 0.00 | 0.00 | 0.00 | 46 | 1014.7 |
| 20260503233004 | 56 | 84 | 0.0 | 3.0 | 0.00 | 0.00 | 0.00 | 46 | 1014.6 |
| 20260503232504 | 56 | 229 | 0.0 | 3.0 | 0.00 | 0.00 | 0.00 | 45 | 1014.6 |
| 20260503231004 | 57 | 25 | 1.0 | 3.0 | 0.00 | 0.00 | 0.00 | 45 | 1014.6 |
| 20260503230504 | 57 | 256 | 1.0 | 2.0 | 0.00 | 0.00 | 0.00 | 43 | 1014.4 |
| 20260503225505 | 57 | 54 | 0.0 | 3.0 | 0.00 | 0.00 | 0.00 | 44 | 1014.5 |
| 20260503225004 | 58 | 347 | 1.0 | 6.0 | 0.00 | 0.00 | 0.00 | 45 | 1014.4 |
| 20260503224504 | 58 | 13 | 1.0 | 6.0 | 0.00 | 0.00 | 0.00 | 44 | 1014.3 |
| 20260503224004 | 58 | 80 | 0.0 | 3.0 | 0.00 | 0.00 | 0.00 | 43 | 1014.3 |
| 20260503223504 | 58 | 355 | 1.0 | 3.0 | 0.00 | 0.00 | 0.00 | 42 | 1014.4 |
| 20260503223004 | 58 | 105 | 1.0 | 3.0 | 0.00 | 0.00 | 0.00 | 42 | 1014.3 |
| 20260503222504 | 58 | 66 | 0.0 | 3.0 | 0.00 | 0.00 | 0.00 | 42 | 1014.3 |
| 20260503222005 | 58 | 308 | 1.0 | 10.0 | 0.00 | 0.00 | 0.00 | 41 | 1014.2 |
| 20260503221004 | 59 | 343 | 1.0 | 9.0 | 0.00 | 0.00 | 0.00 | 40 | 1014.4 |
| 20260503220504 | 59 | 11 | 2.0 | 12.0 | 0.00 | 0.00 | 0.00 | 39 | 1014.4 |
| 20260503220004 | 59 | 314 | 3.0 | 15.0 | 0.00 | 0.00 | 0.00 | 38 | 1014.4 |
| 20260503215004 | 59 | 358 | 5.0 | 14.0 | 0.00 | 0.00 | 0.00 | 38 | 1014.4 |
| 20260503214504 | 59 | 347 | 5.0 | 14.0 | 0.00 | 0.00 | 0.00 | 38 | 1014.4 |
| 20260503213505 | 59 | 24 | 3.0 | 14.0 | 0.00 | 0.00 | 0.00 | 39 | 1014.2 |
| 20260503212504 | 60 | 2 | 4.0 | 14.0 | 0.00 | 0.00 | 0.00 | 38 | 1014.1 |
| 20260503212004 | 60 | 315 | 2.0 | 7.0 | 0.00 | 0.00 | 0.00 | 38 | 1014.2 |
| 20260503211504 | 60 | 53 | 2.0 | 7.0 | 0.00 | 0.00 | 0.00 | 39 | 1014.2 |
| 20260503211005 | 60 | 4 | 2.0 | 8.0 | 0.00 | 0.00 | 0.00 | 38 | 1014.2 |
| 20260503210503 | 60 | 118 | 2.0 | 8.0 | 0.00 | 0.00 | 0.00 | 38 | 1014.1 |
| 20260503210005 | 60 | 17 | 1.0 | 10.0 | 0.00 | 0.00 | 0.00 | 38 | 1014.1 |
| 20260503205505 | 60 | 248 | 2.0 | 10.0 | 0.00 | 0.00 | 0.00 | 38 | 1014.1 |
| 20260503205005 | 60 | 330 | 2.0 | 6.0 | 0.00 | 0.00 | 0.00 | 39 | 1014.2 |
| 20260503204503 | 60 | 40 | 2.0 | 12.0 | 0.00 | 0.00 | 0.00 | 39 | 1014.1 |
| 20260503204005 | 60 | 227 | 2.0 | 12.0 | 0.00 | 0.00 | 0.00 | 38 | 1014.1 |
| 20260503202504 | 60 | 325 | 2.0 | 12.0 | 0.00 | 0.00 | 0.00 | 38 | 1014.1 |
| 20260503202004 | 60 | 341 | 4.0 | 12.0 | 0.00 | 0.00 | 0.00 | 37 | 1014.1 |
| 20260503201505 | 61 | 331 | 3.0 | 10.0 | 0.00 | 0.00 | 0.00 | 37 | 1014.3 |
| 20260503201004 | 61 | 348 | 2.0 | 6.0 | 0.00 | 0.00 | 0.00 | 38 | 1014.3 |
| 20260503200004 | 59 | 117 | 2.0 | 10.0 | 0.00 | 0.00 | 0.00 | 38 | 1014.4 |
| 20260503195504 | 60 | 343 | 4.0 | 9.0 | 0.00 | 0.00 | 0.00 | 38 | 1014.3 |
| 20260503195004 | 59 | 348 | 2.0 | 12.0 | 0.00 | 0.00 | 0.00 | 39 | 1014.3 |
| 20260503194505 | 59 | 112 | 1.0 | 12.0 | 0.00 | 0.00 | 0.00 | 38 | 1014.3 |
| 20260503194004 | 59 | 9 | 3.0 | 8.0 | 0.00 | 0.00 | 0.00 | 38 | 1014.4 |
| 20260503193004 | 59 | 37 | 3.0 | 10.0 | 0.00 | 0.00 | 0.00 | 38 | 1014.4 |
| 20260503192505 | 58 | 324 | 3.0 | 15.0 | 0.00 | 0.00 | 0.00 | 40 | 1014.6 |
| 20260503192006 | 59 | 347 | 3.0 | 15.0 | 0.00 | 0.00 | 0.00 | 40 | 1014.6 |
| 20260503191504 | 59 | 5 | 3.0 | 13.0 | 0.00 | 0.00 | 0.00 | 40 | 1014.4 |
| 20260503191004 | 58 | 316 | 3.0 | 13.0 | 0.00 | 0.00 | 0.00 | 38 | 1014.6 |
| 20260503190504 | 59 | 27 | 5.0 | 13.0 | 0.00 | 0.00 | 0.00 | 39 | 1014.7 |
| 20260503190004 | 59 | 353 | 2.0 | 15.0 | 0.00 | 0.00 | 0.00 | 39 | 1014.6 |
| 20260503185504 | 58 | 9 | 5.0 | 15.0 | 0.00 | 0.00 | 0.00 | 39 | 1014.7 |
| 20260503184504 | 58 | 328 | 3.0 | 12.0 | 0.00 | 0.00 | 0.00 | 39 | 1014.6 |
| 20260503183505 | 58 | 309 | 2.0 | 9.0 | 0.00 | 0.00 | 0.00 | 40 | 1014.7 |
| 20260503182505 | 57 | 327 | 1.0 | 16.0 | 0.00 | 0.00 | 0.00 | 40 | 1015.0 |
| 20260503181505 | 57 | 289 | 2.0 | 13.0 | 0.00 | 0.00 | 0.00 | 42 | 1015.1 |
| 20260503181005 | 57 | 358 | 7.0 | 13.0 | 0.00 | 0.00 | 0.00 | 40 | 1015.0 |
| 20260503180504 | 58 | 31 | 3.0 | 12.0 | 0.00 | 0.00 | 0.00 | 40 | 1014.9 |
| 20260503180004 | 58 | 309 | 2.0 | 12.0 | 0.00 | 0.00 | 0.00 | 42 | 1014.9 |
| 20260503175505 | 58 | 352 | 3.0 | 12.0 | 0.00 | 0.00 | 0.00 | 44 | 1015.0 |
| 20260503175005 | 57 | 346 | 3.0 | 12.0 | 0.00 | 0.00 | 0.00 | 42 | 1014.8 |
| 20260503174504 | 57 | 19 | 5.0 | 15.0 | 0.00 | 0.00 | 0.00 | 43 | 1014.7 |
| 20260503174004 | 57 | 355 | 4.0 | 15.0 | 0.00 | 0.00 | 0.00 | 42 | 1014.9 |
| 20260503173504 | 57 | 248 | 2.0 | 13.0 | 0.00 | 0.00 | 0.00 | 44 | 1014.9 |
| 20260503173004 | 57 | 23 | 6.0 | 13.0 | 0.00 | 0.00 | 0.00 | 43 | 1015.1 |
| 20260503172504 | 56 | 22 | 3.0 | 9.0 | 0.00 | 0.00 | 0.00 | 46 | 1014.9 |
| 20260503172004 | 56 | 321 | 2.0 | 10.0 | 0.00 | 0.00 | 0.00 | 45 | 1015.1 |
| 20260503171505 | 56 | 336 | 2.0 | 10.0 | 0.00 | 0.00 | 0.00 | 45 | 1015.0 |
| 20260503171006 | 55 | 322 | 2.0 | 12.0 | 0.00 | 0.00 | 0.00 | 47 | 1015.0 |
| 20260503170504 | 55 | 16 | 6.0 | 12.0 | 0.00 | 0.00 | 0.00 | 45 | 1015.0 |
| 20260503151004 | 53 | 347 | 2.0 | 10.0 | 0.00 | 0.00 | 0.00 | 53 | 1015.3 |
| 20260503131004 | 48 | 329 | 3.0 | 8.0 | 0.00 | 0.00 | 0.00 | 63 | 1015.4 |
| 20260503130504 | 48 | 19 | 1.0 | 12.0 | 0.00 | 0.00 | 0.00 | 65 | 1015.5 |
| 20260503110504 | 43 | 337 | 0.0 | 3.0 | 0.00 | 0.00 | 0.00 | 79 | 1014.1 |
| 20260503081004 | 43 | 37 | 0.0 | 1.0 | 0.00 | 0.00 | 0.00 | 76 | 1012.2 |
| 20260503080504 | 43 | 341 | 0.0 | 3.0 | 0.00 | 0.00 | 0.00 | 76 | 1012.2 |
| 20260503072504 | 45 | 98 | 0.0 | 3.0 | 0.00 | 0.00 | 0.00 | 73 | 1011.9 |
| 20260503072005 | 45 | 324 | 0.0 | 3.0 | 0.00 | 0.00 | 0.00 | 73 | 1011.8 |
| 20260503071504 | 45 | 326 | 0.0 | 3.0 | 0.00 | 0.00 | 0.00 | 73 | 1011.8 |
| 20260503071004 | 45 | 59 | 0.0 | 3.0 | 0.00 | 0.00 | 0.00 | 73 | 1011.8 |
| 20260503070504 | 45 | 7 | 1.0 | 3.0 | 0.00 | 0.00 | 0.00 | 72 | 1011.7 |
| 20260503055004 | 50 | 15 | 2.0 | 6.0 | 0.00 | 0.00 | 0.00 | 63 | 1011.6 |
| 20260503054504 | 50 | 11 | 2.0 | 5.0 | 0.00 | 0.00 | 0.00 | 63 | 1011.5 |
| 20260503054005 | 50 | 358 | 2.0 | 5.0 | 0.00 | 0.00 | 0.00 | 63 | 1011.6 |
| 20260503053505 | 50 | 359 | 0.0 | 5.0 | 0.00 | 0.00 | 0.00 | 62 | 1011.6 |
| 20260503053004 | 51 | 18 | 1.0 | 6.0 | 0.00 | 0.00 | 0.00 | 62 | 1011.7 |
| 20260503052504 | 51 | 357 | 2.0 | 6.0 | 0.00 | 0.00 | 0.00 | 61 | 1011.7 |
| 20260503052005 | 51 | 346 | 2.0 | 6.0 | 0.00 | 0.00 | 0.00 | 61 | 1011.7 |
| 20260503051005 | 51 | 13 | 2.0 | 6.0 | 0.00 | 0.00 | 0.00 | 60 | 1011.5 |
| 20260503050504 | 52 | 28 | 2.0 | 6.0 | 0.00 | 0.00 | 0.00 | 59 | 1011.6 |
| 20260503050005 | 52 | 358 | 2.0 | 8.0 | 0.00 | 0.00 | 0.00 | 59 | 1011.6 |
| 20260503045505 | 52 | 352 | 2.0 | 8.0 | 0.00 | 0.00 | 0.00 | 59 | 1011.6 |
| 20260503045005 | 52 | 3 | 2.0 | 7.0 | 0.00 | 0.00 | 0.00 | 58 | 1011.5 |
| 20260503044505 | 52 | 357 | 2.0 | 7.0 | 0.00 | 0.00 | 0.00 | 58 | 1011.7 |
| 20260503043504 | 52 | 0 | 2.0 | 7.0 | 0.00 | 0.00 | 0.00 | 58 | 1011.7 |
| 20260503043004 | 52 | 14 | 2.0 | 6.0 | 0.00 | 0.00 | 0.00 | 58 | 1011.8 |
| 20260503042504 | 52 | 9 | 1.0 | 6.0 | 0.00 | 0.00 | 0.00 | 59 | 1011.7 |
| 20260503041504 | 52 | 29 | 0.0 | 6.0 | 0.00 | 0.00 | 0.00 | 59 | 1011.9 |
| 20260503041004 | 52 | 6 | 1.0 | 6.0 | 0.00 | 0.00 | 0.00 | 59 | 1011.9 |
| 20260503040505 | 52 | 8 | 2.0 | 5.0 | 0.00 | 0.00 | 0.00 | 59 | 1011.7 |
| 20260503040004 | 52 | 355 | 1.0 | 5.0 | 0.00 | 0.00 | 0.00 | 60 | 1011.9 |
| 20260503035504 | 52 | 26 | 1.0 | 6.0 | 0.00 | 0.00 | 0.00 | 60 | 1011.9 |
| 20260503035005 | 52 | 7 | 2.0 | 6.0 | 0.00 | 0.00 | 0.00 | 59 | 1011.9 |
| 20260503034005 | 52 | 355 | 1.0 | 5.0 | 0.00 | 0.00 | 0.00 | 59 | 1011.9 |
| 20260503033504 | 52 | 5 | 1.0 | 3.0 | 0.00 | 0.00 | 0.00 | 60 | 1011.8 |
| 20260503033004 | 52 | 358 | 1.0 | 3.0 | 0.00 | 0.00 | 0.00 | 60 | 1011.9 |
| 20260503032505 | 52 | 342 | 1.0 | 5.0 | 0.00 | 0.00 | 0.00 | 59 | 1012.0 |
| 20260503032004 | 52 | 348 | 1.0 | 7.0 | 0.00 | 0.00 | 0.00 | 59 | 1011.9 |
| 20260503031504 | 52 | 26 | 1.0 | 7.0 | 0.00 | 0.00 | 0.00 | 59 | 1012.0 |
| 20260503031004 | 52 | 22 | 2.0 | 7.0 | 0.00 | 0.00 | 0.00 | 60 | 1012.0 |